Theta_e
321 320 320 320 320 320 320 320 320 319 318 318 317 317 317 317 317 317 316 316 316 315 315 315 314 313 313 313 313 314 314 315 315 315 315 315 316 316 317 317 318 317
319 320 319 319 318 318 318 317 315 314 314 313 313 313 314 313 313 313 312 313 313 313 313 313 314 313 313 312 312 311 312 312 313 313 313 313 314 314 315 315 315 315
318 318 317 316 315 314 313 312 311 310 310 310 310 310 310 309 309 309 309 309 309 310 310 310 311 312 312 312 312 311 310 310 310 311 311 311 311 311 311 311 311 311
314 313 312 312 311 310 310 309 309 309 308 308 308 308 307 307 307 307 307 307 307 307 308 307 307 308 308 309 309 309 308 308 307 307 308 308 308 309 309 309 309 309
310 310 309 309 309 308 308 308 308 307 307 307 306 306 306 306 306 306 306 306 306 306 306 306 306 306 306 306 306 306 306 306 305 305 305 305 306 306 307 307 307 307
308 308 308 308 308 307 307 307 306 306 306 306 305 305 305 305 305 305 305 305 305 304 304 304 304 304 304 304 304 304 304 304 303 303 303 303 303 303 303 303 303 304
307 307 307 307 306 306 306 306 305 305 305 305 305 305 305 305 305 305 304 304 304 304 304 303 303 303 303 303 303 303 302 302 302 302 302 301 301 301 301 301 301 301
306 306 306 305 306 306 306 305 305 305 305 305 304 303 303 302 301 301 300 300 300 299 299 298 298 298 298 298 298 298 298 299 299 300 300 300 300 300 300 300 300 300
305 305 305 305 305 304 303 303 302 302 301 300 299 298 297 297 296 295 295 295 294 294 294 293 293 293 293 293 294 294 294 294 295 296 296 297 297 297 297 297 298 298
305 304 303 302 300 299 298 297 296 296 295 295 294 294 294 293 293 293 293 293 293 292 292 292 292 292 292 292 292 293 293 293 293 294 294 295 295 294 294 295 295 296
301 299 298 296 295 294 294 294 293 293 293 293 293 293 293 293 292 292 292 292 292 292 292 292 291 291 291 291 291 292 292 292 292 292 293 293 293 293 293 294 294 294
295 294 294 294 293 293 293 293 293 293 293 293 292 292 292 292 292 292 292 292 291 291 291 291 291 291 291 291 291 291 291 291 291 291 291 291 291 291 292 292 292 293
293 293 293 293 292 292 292 292 292 292 292 292 292 292 291 291 291 291 291 291 291 291 291 291 291 291 291 290 290 290 290 290 290 290 290 290 290 290 290 291 291 291
292 292 292 292 292 292 292 292 292 292 292 291 291 291 291 291 291 291 291 291 290 290 290 291 291 290 290 290 290 290 290 290 290 290 290 290 290 290 290 290 290 291
292 292 292 292 292 291 291 291 291 291 291 291 291 291 291 291 290 290 291 291 291 291 290 291 291 290 290 290 290 290 289 289 289 289 289 289 289 290 290 290 290 290
292 291 291 291 291 291 291 291 290 291 291 291 291 290 290 290 290 290 290 290 290 290 290 290 290 290 290 290 290 290 289 289 289 289 289 289 289 289 289 290 290 290
291 291 291 290 290 290 290 290 290 290 290 290 290 290 290 290 290 290 290 290 290 290 290 290 290 290 290 290 290 290 289 289 289 288 289 289 289 289 289 289 289 289
290 290 290 290 290 290 290 290 290 290 290 290 290 290 290 290 290 290 290 289 289 289 289 289 289 289 289 289 289 289 289 288 288 288 288 288 288 288 288 288 289 289
290 290 290 290 290 290 289 290 289 290 289 289 289 289 289 289 289 289 289 289 289 288 288 288 288 288 288 288 288 288 288 288 288 288 288 288 288 288 288 288 288 288
289 289 289 289 289 289 289 289 289 289 289 289 289 289 289 289 289 289 289 288 288 288 288 288 288 288 288 287 287 287 287 287 287 287 287 287 287 287 288 288 288 288
289 289 289 289 289 289 289 289 289 289 288 288 288 288 288 288 288 288 288 287 287 287 287 287 287 287 287 287 287 287 287 287 287 287 287 287 287 287 287 287 287 287
289 289 289 289 289 289 289 288 288 288 288 288 287 287 287 287 287 287 287 287 287 287 287 287 287 287 287 287 287 287 287 286 287 287 287 287 287 287 287 287 287 287
288 288 289 288 288 288 288 288 288 287 287 287 287 287 287 287 287 287 287 287 287 287 286 287 287 287 286 286 287 286 286 286 286 286 286 286 286 286 287 287 287 287
288 288 288 288 288 287 287 287 287 287 287 286 286 286 286 286 286 287 287 287 287 287 286 286 287 287 286 286 286 286 285 285 286 286 286 286 286 286 286 286 286 286
288 287 287 287 287 287 286 286 286 286 286 286 286 286 286 286 286 286 287 287 287 287 286 286 286 287 286 285 285 285 284 284 285 285 285 285 285 285 285 285 285 285
287 287 287 287 286 286 286 286 286 286 286 286 286 286 286 286 286 286 287 287 286 286 286 285 285 285 285 284 284 283 283 283 284 284 284 284 284 284 285 285 285 285
Wind_Speed
12 10 10 9 7 6 6 6 6 5 5 4 5 4 5 6 7 7 7 8 9 9 10 10 10 11 12 13 13 13 14 16 17 17 18 19 20 20 22 23 24 25
12 11 11 10 8 8 7 6 5 4 4 4 5 6 7 8 9 9 10 11 11 11 10 10 8 8 10 11 12 12 13 14 15 16 17 18 20 20 21 22 22 23
13 12 12 10 8 6 4 2 1 1 1 2 3 4 5 5 6 6 6 7 8 9 9 9 8 8 8 9 11 13 14 15 16 16 17 19 20 22 23 24 25 25
12 10 9 8 5 4 3 2 3 3 2 2 1 2 3 4 5 6 7 7 8 8 8 9 8 8 8 8 10 12 13 15 16 16 17 18 19 21 22 23 24 25
11 9 8 7 7 7 7 7 7 7 6 6 6 6 7 8 9 10 10 10 10 9 9 9 9 9 10 10 10 11 13 14 15 16 16 17 18 18 20 21 23 24
12 11 11 11 11 11 12 12 11 11 10 10 11 11 12 12 13 13 13 13 13 12 12 12 12 11 11 11 11 12 12 14 15 16 17 18 19 19 19 19 21 23
15 15 15 15 15 15 15 15 14 14 14 14 14 14 14 15 15 15 15 15 15 15 14 15 15 15 14 14 14 14 14 15 15 16 17 19 20 21 21 20 21 22
19 19 18 18 18 18 18 18 17 17 16 16 16 16 15 15 15 15 15 15 15 15 15 16 16 17 17 18 18 18 18 18 18 18 19 20 21 22 23 22 22 23
22 21 21 20 21 21 20 19 19 18 17 17 16 16 15 15 15 15 15 15 15 16 16 17 18 18 19 19 20 20 20 20 21 21 21 22 23 24 25 24 24 25
24 23 22 22 22 21 20 19 18 17 17 16 16 16 16 16 16 16 16 16 17 17 18 18 19 20 21 21 21 21 22 22 23 23 24 24 25 26 27 27 27 27
24 23 22 22 21 20 19 19 18 17 16 16 16 16 16 16 16 16 17 17 18 18 19 20 21 22 22 23 23 23 24 24 25 26 26 27 28 29 29 30 30 31
23 22 22 21 20 19 19 18 17 16 16 16 15 16 16 16 17 17 18 19 19 19 20 21 22 22 23 24 24 25 25 26 26 27 28 28 29 31 31 31 32 33
23 22 21 20 19 18 17 16 16 16 15 15 15 15 16 17 17 18 19 19 20 20 21 23 24 25 25 25 26 27 27 28 28 29 30 31 32 33 33 34 35 35
22 21 20 19 18 17 16 16 15 15 15 15 15 16 17 18 19 20 20 21 22 23 24 25 27 27 28 28 29 30 30 31 32 32 34 35 36 36 36 36 37 38
21 19 18 17 16 16 15 15 15 15 15 16 16 17 18 19 20 21 23 23 24 25 26 28 29 30 30 30 31 32 33 34 35 35 36 37 38 39 40 40 40 41
19 18 17 16 15 15 15 15 15 15 16 16 17 17 19 20 21 22 24 25 26 27 28 29 30 30 31 31 32 33 35 36 36 37 37 38 39 41 42 43 42 42
18 17 16 15 15 15 15 15 15 15 16 16 17 18 19 20 22 23 24 25 26 27 28 29 30 31 31 33 33 34 35 37 38 39 39 39 40 40 42 44 45 44
17 16 15 15 15 15 15 15 15 15 16 16 17 19 20 21 23 24 25 26 27 28 28 29 30 31 32 33 34 35 36 37 38 40 41 41 41 41 43 45 46 46
15 15 15 14 14 14 14 14 15 15 16 17 18 20 21 23 24 25 26 27 28 29 29 30 31 32 33 34 35 36 37 37 38 40 41 42 43 43 44 45 46 46
15 14 14 14 13 13 13 14 15 16 17 18 19 21 22 24 25 26 27 27 29 30 31 32 33 33 34 35 35 36 37 37 38 40 41 42 43 43 44 46 46 45
14 13 13 13 12 12 13 14 15 16 17 19 20 21 22 24 25 26 27 29 30 31 33 35 35 34 35 35 35 35 36 37 39 40 41 42 44 44 45 45 45 44
13 12 12 12 11 12 13 14 15 16 17 19 20 21 23 24 25 26 28 30 31 32 33 36 36 34 34 35 35 35 35 38 39 40 40 41 44 46 46 45 44 42
12 11 10 11 11 12 13 14 15 16 18 19 21 22 24 25 27 28 29 30 32 32 32 35 37 36 33 34 36 35 36 37 39 40 40 41 43 46 47 45 44 42
10 10 9 10 11 12 13 14 15 16 18 19 21 23 24 25 27 29 29 30 31 33 33 34 38 39 35 34 35 36 35 36 37 38 39 40 42 45 47 46 45 44
9 9 9 10 11 12 13 14 15 17 18 20 21 23 24 26 27 30 32 32 32 34 35 35 37 40 38 34 34 35 34 34 35 36 37 39 42 45 47 47 46 45
8 8 9 10 10 11 12 14 15 17 18 20 22 23 25 27 29 30 33 35 34 34 35 35 35 38 38 36 34 34 34 33 34 34 35 37 40 42 44 45 45 45
Wind_Direction
165 172 177 175 174 180 187 191 201 211 221 238 250 262 272 272 272 273 277 281 284 289 292 293 298 300 297 292 287 285 288 292 294 293 292 291 290 290 288 286 284 281
160 166 166 162 167 179 189 199 213 232 246 257 263 266 269 273 279 282 282 282 280 281 281 282 289 302 310 313 308 300 293 291 291 293 294 292 290 290 289 289 289 288
167 171 168 165 170 178 188 205 217 252 261 269 277 284 291 301 311 317 316 313 309 306 303 299 291 285 289 298 302 303 301 297 294 291 290 289 289 290 289 288 289 289
161 160 159 159 159 152 139 128 119 110 105 96 45 9 5 6 12 15 11 3 356 344 333 328 324 317 308 300 297 302 305 304 302 299 295 292 293 294 294 294 293 292
141 138 139 139 134 130 123 116 109 102 97 90 74 60 51 46 43 40 36 31 23 13 0 352 349 347 345 338 328 321 318 317 315 313 308 304 302 299 297 297 295 294
130 128 128 128 125 119 112 105 100 94 90 84 76 68 62 58 54 49 46 43 38 32 24 18 14 10 5 358 351 343 336 331 328 325 322 320 318 315 310 304 300 298
126 123 121 120 116 110 104 99 95 91 88 83 78 74 69 65 60 55 52 48 44 40 34 29 24 20 17 11 6 1 354 347 341 336 332 329 327 326 323 317 308 304
120 117 115 113 110 106 102 98 95 91 89 85 81 76 71 67 61 56 52 48 44 39 34 30 24 20 18 15 10 6 2 358 352 346 341 337 333 332 329 325 317 311
116 113 113 111 108 104 100 97 95 91 88 84 80 74 68 64 58 53 50 46 43 38 33 29 24 21 18 14 10 6 2 359 354 348 344 339 335 333 331 327 322 316
115 113 112 108 104 101 97 95 91 88 84 79 75 69 63 59 54 50 47 43 40 35 30 25 21 18 16 12 7 2 357 354 351 346 342 337 332 331 329 326 321 316
112 111 108 104 101 97 94 90 87 83 79 73 69 64 59 55 50 45 41 37 33 29 24 21 17 14 12 9 4 360 355 350 346 342 338 334 330 328 326 323 319 315
110 108 105 101 98 95 91 87 83 77 73 68 63 58 53 48 42 38 34 30 28 24 19 16 13 11 8 5 1 356 352 347 342 339 334 331 328 326 324 320 316 314
108 105 103 99 95 92 88 83 78 73 68 63 58 53 47 41 36 32 29 26 22 19 15 12 10 7 4 1 358 353 348 344 340 337 334 331 328 325 323 319 316 314
106 103 100 96 92 88 83 78 73 67 62 58 52 46 40 34 30 26 22 20 17 14 11 8 5 4 0 357 353 349 346 342 338 336 332 329 327 324 321 319 316 313
105 101 97 93 89 85 79 73 67 61 56 51 45 39 34 29 24 20 16 13 11 8 6 4 2 0 357 354 350 346 343 339 336 333 330 326 324 322 319 317 315 312
104 99 95 90 85 78 72 66 59 53 46 41 37 32 27 23 19 15 12 8 6 3 1 360 359 356 354 351 347 344 340 336 332 328 326 323 320 318 315 313 311 309
103 98 92 87 79 71 64 57 50 44 38 34 30 26 22 18 14 11 8 5 1 359 357 355 354 352 350 347 344 341 337 332 329 325 323 320 316 313 311 309 308 306
102 96 89 82 73 65 57 49 42 36 32 28 23 21 17 13 10 7 5 1 358 355 352 350 349 347 345 343 340 337 335 330 326 323 320 317 314 311 308 307 306 305
99 93 85 76 67 59 51 44 37 29 25 22 19 16 12 8 6 3 0 358 354 351 347 345 345 344 342 340 338 335 333 329 324 320 317 314 312 310 307 306 305 304
95 87 79 71 62 54 44 38 32 24 20 18 14 11 7 5 2 358 356 354 350 347 343 341 342 342 340 338 336 334 331 327 322 319 316 312 310 309 306 305 304 303
90 81 74 65 56 48 38 32 26 20 16 14 11 8 5 1 358 355 352 351 348 345 341 339 340 341 339 337 335 333 330 326 322 318 315 312 310 309 306 304 303 303
86 78 70 61 51 42 33 26 22 17 12 10 7 4 1 358 355 353 351 348 346 344 340 338 338 339 339 337 336 334 331 327 323 319 316 313 311 310 308 306 305 303
84 76 67 56 46 37 29 22 18 15 10 6 2 359 358 357 353 351 349 346 344 343 340 337 337 339 339 338 337 335 332 328 324 320 317 313 312 311 310 308 307 306
84 74 63 52 41 33 26 19 14 11 7 3 0 357 356 356 352 348 347 345 343 342 340 337 336 338 339 338 336 334 331 328 324 320 317 314 313 312 311 310 308 308
84 72 58 48 39 30 23 15 11 8 5 2 0 358 356 355 353 348 345 345 343 342 340 338 336 337 338 337 334 332 330 328 324 321 317 315 314 312 311 311 309 309
83 70 54 44 36 28 21 14 9 7 5 2 0 358 356 354 353 349 344 343 342 340 338 337 335 334 334 333 331 330 330 328 325 321 317 315 314 311 310 310 310 310